Showing default

SNUGLITE, 43784

Orbit data source: Space-Track

SNUGLITE, 43784 is a payload satellite owned by SNU (KR) in SSO that was launched on Mon, 03 Dec 2018 UTC via an FALCON 9 launch vehicle from the Air Force Western Test Range (AFWTR). Payload-class satellites include a variety of spacecraft equipped with specific instruments for various scientific and technological missions. These include communications satellites like Starlink; space stations such as the ISS; scientific satellites like the Hubble; Earth observation satellites from companies like Planet Labs, Umbra, and HawkEye 360; GPS; miniature CubeSats for education and research; and military/defense satellites.

Loading next visibility...
Identifier
43784, 2018-099AC
Orbit
SSO
Last TLE update
1 day ago
Origin
Manufacturer
SNU
Mission
Operational Amateur Technology
Bus & Motor
CUBESAT 2U, Unknown motor
Mass
2 kg wet, 2 kg dry
Launch date (UTC)
2018-12-03 (7 years ago)
Launch vehicle
FALCON 9
Launch site
Air Force Western Test Range (AFWTR)
Object type
Payload
Rocket body
Debris
Shape & HBR
Box + 1 Rod, 0.4 m
Radar Cross Section
0.025 m², Small (<0.1 m²)

Expand to show TLE details & history

TLE from 1 day ago
0 SNUGLITE
1 43784U 18099AC  25185.66595730  .00007369  00000-0  36618-3 0  9997
2 43784  97.4399 239.6356 0005030  79.6873 280.4928 15.17935104360447
Epoch: 2025-07-04T15:58Z
TLE epoch observation values (Epoch: 2025-07-04T15:58:58.71Z)
Latitude
-0.00002°
Longitude
76.97589°
Altitude
514.539 km
Speed
7.607 km/s
True Right ascension
15h 58m 32s
True Declination
0° 00' 00"
Sunlit
Object was in full shadow at epoch
Visualization orbit readout
Latitude
50.50191°
Longitude
-92.89931°
Altitude
518.08 km
Speed
7.611 km/s
Apparent Right ascension
21h 53m 27s
Apparent Declination
39° 58' 30"
Sunlit
Object is in daylight
Visualization observer readout
Local Sidereal Time
05:47:11
Azimuth
317.166° NNW
Elevation
7.608°
Doppler factor
1
Orbital elements
Apogee altitude
512.516 km
Perigee altitude
505.588 km
Semi-major axis
6,887.189 km
Eccentricity
0.0005
Inclination
97.4399°
RAAN
239.6356°
Arg. of periapsis
79.6873°
True anomaly
Unknown
Mean anomaly
280.4928°
Eccentric anomaly
Unknown
Mean motion
3.79735 °/min
Orbital period
94.8 mins
BSTAR
0.00036618
Loading maneuver chart data...
Loading SW <> Apogee altitude chart data...
Loading historical data...
Loading historical data...
Loading historical data...
Loading historical data...
Loading historical data...
Loading historical data...
Loading historical data...

SNUGLITE Visibility forecast

Observer location: undefined°, undefined°

Span
Click to sort rows by Start time (UTC) header in descending order
Start Az.
Max El. time (UTC)
Max El. Az.
Max El.
End time (UTC)
End Az.
5 mins2025-07-06 02:55:44.877Z123.2° SE2025-07-06 02:58:44.877Z64.931° ENE22.198°2025-07-06 03:00:44.877Z24.335° NE
4 mins2025-07-06 04:30:44.877Z230.318° WSW2025-07-06 04:32:44.877Z271.556° WNW18.647°2025-07-06 04:34:44.877Z308.133° NW
5 mins2025-07-06 16:01:44.877Z42.775° NE2025-07-06 16:03:44.877Z97.375° ESE30.645°2025-07-06 16:06:44.877Z163.264° S
|